星链-6061 (STARLINK-6061 )

导读 | 星芒AI

STARLINK-6061 是 SpaceX 星链计划中的一颗低轨道通信卫星,属于第6组星链卫星群。该卫星于2021年发射,旨在为全球用户提供高速互联网服务。它运行在约550公里高的近地轨道,具备先进的相控阵天线和激光通信技术,以提升网络连接的稳定性和传输速度。星链项目通过部署大量此类卫星,构建全球覆盖的宽带网络系统,尤其服务于偏远和网络基础设施薄弱的地区。STARLINK-6061 在该系统中发挥着关键作用,助力实现全球互联网接入的愿景。

基本信息
目录编号:
56795
目录名称:
STARLINK-6061
国际标识:
2023-078AE
轨道中心:
EARTH
卫星名称:
星链-6061
卫星全名:
星链-6061 (STARLINK-6061 )
卫星状态:
在轨 (已飞行935 天)
发射日期:
2023-05-31 UTC
国别 :
美国 (US)
星等 :
--
轨道信息
数据来源 国际轨道数据
星历时间: 2025-12-21T19:40:23+0800
6小时前
查看轨道信息
半长轴: 6950.19km
偏心率: 0.0002985
轨道倾角: 69.998°
近地点辐角 270.611°
升交点赤经 161.462°
平近点角 89.470°
近地点: 569.978km
远地点: 574.128km
周期: 96.107分钟
每日圈数: 14.98331
详细信息
固有亮度:
5
最大亮度:
2.5
卫星平台:
Starlink v1.5
覆盖范围:
全球
运营商:
太空探索技术公司
运营商所在国:
美国
制造商(研发单位):
太空探索技术公司
制造商所在国:
美国
使用方式:
暂无
卫星简介
星链(Starlink)计划是由太空探索技术公司(SpaceX)提出的一个巨型低轨卫星互联网星座项目,计划在2019年至2024年间在太空搭建由约1.2万颗卫星组成的“星链”网络,其中1584颗将部署在地球上空550千米处的近地轨道,并从2020年开始工作。该卫星仍在工作。
2D轨道图
3D轨道图
轨道高度分析图
轨道倾角分析图
轨道综合分析图
查看轨道综合分析图